This demonstration page uses our WeatherBlox Daily Observations layout. Learn more.

Left ArrowRight Arrow

Hourly Observations for October 8, 2018

Temp ( °F °C ) Dew Point ( °F °C ) Humidity (%) Winds ( mph kmh ) Pressure ( in mb ) Visibility ( mi km ) Precip ( " mm )
12:51 am 00:51 Partly Cloudy 53 11.7 50 10 89 89 N 3 6 29.71 1006 10 16 0.00 0.00
1:51 am 01:51 Clear 51 10.6 50 10 96 96 ESE 5 7 29.72 1006 10 16 0.00 0.00
2:51 am 02:51 Clear 50 10 49 9.4 96 96 E 6 9 29.72 1006 10 16 0.00 0.00
3:51 am 03:51 Clear 51 10.6 48 8.9 89 89 E 8 13 29.72 1006 10 16 0.00 0.00
4:51 am 04:51 Partly Cloudy 52 11.1 48 8.9 86 86 E 9 15 29.73 1007 10 16 0.00 0.00
5:51 am 05:51 Mostly Clear 51 10.6 47 8.3 86 86 E 8 13 29.75 1008 10 16 0.00 0.00
6:51 am 06:51 Sunny 53 11.7 48 8.9 83 83 E 8 13 29.77 1008 10 16 0.00 0.00
7:51 am 07:51 Sunny 58 14.4 46 7.8 65 65 ESE 8 13 29.77 1008 10 16 0.00 0.00
8:51 am 08:51 Sunny 61 16.1 46 7.8 58 58 E 8 13 29.77 1008 10 16 0.00 0.00
9:51 am 09:51 Sunny 64 17.8 44 6.7 48 48 E 6 9 29.77 1008 10 16 0.00 0.00
10:51 am 10:51 Mostly Sunny 65 18.3 41 5 42 42 Calm 29.76 1008 10 16 0.00 0.00
11:51 am 11:51 Mostly Sunny 67 19.4 42 5.6 41 41 Calm 29.74 1007 10 16 0.00 0.00
12:51 pm 12:51 Partly Cloudy 68 20 41 5 38 38 WNW 6 9 29.72 1006 10 16 0.00 0.00
1:51 pm 13:51 Partly Cloudy 70 21.1 42 5.6 37 37 WNW 13 20 29.69 1006 10 16 0.00 0.00
2:51 pm 14:51 Mostly Sunny 72 22.2 38 3.3 29 29 WNW 15 24 29.68 1005 10 16 0.00 0.00
3:51 pm 15:51 Mostly Sunny 70 21.1 37 2.8 30 30 NW 17 28 29.68 1005 10 16 0.00 0.00
4:51 pm 16:51 Sunny 67 19.4 37 2.8 33 33 NW 20 31 29.67 1005 10 16 0.00 0.00
5:51 pm 17:51 Sunny 65 18.3 38 3.3 37 37 NW 13 20 29.69 1006 10 16 0.00 0.00
6:51 pm 18:51 Cloudy 63 17.2 40 4.4 43 43 NW 13 20 29.71 1006 10 16 0.00 0.00
7:51 pm 19:51 Clear 60 15.6 42 5.6 52 52 NW 10 17 29.72 1007 10 16 0.00 0.00
8:51 pm 20:51 Clear 57 13.9 44 6.7 62 62 WNW 12 19 29.75 1007 10 16 0.00 0.00
9:51 pm 21:51 Clear 55 12.8 46 7.8 72 72 W 12 19 29.75 1008 10 16 0.00 0.00
10:51 pm 22:51 Clear 54 12.2 45 7.2 72 72 WNW 12 19 29.76 1008 10 16 0.00 0.00
11:51 pm 23:51 Clear 51 10.6 46 7.8 83 83 NNW 7 11 29.77 1008 10 16 0.00 0.00

Powered by AerisWeather